Theta_e
348 354 360 358 356 358 357 355 355 354 353 352 350 350 350 352 351 349 349 348 348 348 351 352 350 348 346 344 341 340 339 339 340 341 341 342 342 341 343 345 348 343 345
350 353 359 360 358 358 358 355 355 355 354 352 349 351 352 350 348 346 345 345 347 346 349 350 348 347 346 344 343 342 342 343 341 340 340 342 343 344 342 343 344 342 346
348 352 356 360 359 359 358 356 355 354 352 350 349 350 350 349 349 346 343 344 345 345 346 349 346 345 345 343 342 341 340 339 338 340 342 339 343 348 345 343 346 347 347
347 350 353 360 359 359 357 355 354 352 350 349 348 349 351 350 348 345 342 342 343 343 344 345 344 343 343 342 341 340 339 337 337 340 342 344 344 348 347 346 345 344 344
346 349 355 359 359 358 356 355 352 350 349 348 346 348 352 351 348 344 341 341 340 340 342 342 342 342 342 342 342 341 338 336 338 339 343 344 343 345 345 344 342 342 341
345 348 355 358 359 357 356 355 352 350 348 346 346 348 351 352 348 343 341 341 341 340 341 341 342 342 341 341 341 339 337 337 337 328 336 344 343 344 343 341 340 339 338
344 352 353 358 358 357 356 355 353 350 346 345 348 350 351 350 347 344 341 341 341 340 340 341 341 341 340 338 340 338 335 335 328 328 328 332 340 343 341 339 338 337 337
345 350 351 355 356 356 355 354 352 348 344 345 348 351 353 349 347 344 341 341 341 340 340 339 339 339 339 336 339 337 333 334 328 327 330 330 337 342 339 338 336 335 335
347 347 350 353 353 353 352 352 351 348 345 345 349 352 350 349 346 344 341 341 341 340 339 338 338 338 337 334 334 333 329 330 327 328 330 331 334 338 338 336 335 333 333
345 348 349 348 350 350 351 349 348 347 346 349 346 345 344 344 345 344 342 342 341 338 336 335 336 336 334 332 328 325 325 328 325 327 330 333 335 338 339 335 332 332 332
346 345 348 345 347 347 348 345 346 344 344 344 341 340 339 340 341 340 339 342 341 337 335 333 334 333 330 330 326 324 325 324 323 324 328 336 338 340 344 338 332 331 331
342 343 346 347 344 350 348 345 346 343 342 340 337 337 337 336 337 338 338 339 341 339 336 333 333 331 327 326 325 323 321 322 321 324 327 333 336 340 343 341 333 331 330
340 344 343 344 345 349 347 346 345 342 343 343 341 337 333 333 336 336 337 336 337 336 339 336 333 332 329 328 326 325 324 323 322 324 327 332 333 337 343 342 335 330 331
338 339 341 343 344 345 346 345 344 342 341 342 342 341 336 332 334 333 333 334 335 337 337 338 336 335 334 333 331 330 328 327 326 325 326 330 330 334 339 339 334 333 332
336 338 340 344 344 344 343 345 343 342 341 341 341 341 339 336 335 332 331 331 332 333 334 335 336 335 335 335 335 334 333 332 331 328 326 329 330 331 334 338 340 338 335
339 339 340 340 341 342 343 343 342 342 341 340 340 341 340 339 337 336 334 332 331 333 335 335 336 337 336 337 336 336 335 335 333 331 329 329 327 328 330 334 336 336 337
339 341 341 342 343 341 342 341 342 343 341 340 340 340 340 339 339 338 337 337 336 335 335 336 337 337 336 336 336 336 336 336 336 335 334 332 330 326 329 329 332 335 336
340 340 341 341 340 339 338 339 339 339 339 340 340 341 340 339 340 340 339 339 340 339 338 337 336 336 336 335 335 336 335 335 335 335 336 336 334 329 329 331 331 331 334
339 340 340 341 340 340 340 339 339 338 339 340 341 341 342 341 340 340 340 340 341 340 339 337 337 335 334 335 335 335 335 335 335 334 333 334 334 333 330 329 329 329 331
338 339 340 341 340 340 341 340 340 340 339 340 341 341 341 341 341 341 340 339 338 338 338 338 335 338 336 335 333 332 334 335 335 333 332 331 330 331 330 328 328 325 325
336 338 339 339 340 340 340 338 338 337 339 339 340 341 341 341 341 341 341 339 339 337 336 337 337 335 334 335 331 329 331 332 330 330 330 329 327 326 325 324 324 324 324
319 335 337 338 339 340 341 340 341 341 341 341 343 342 342 341 342 340 340 339 339 338 338 336 334 333 332 333 327 321 319 322 326 326 327 325 323 323 322 321 320 320 321
314 322 333 336 337 339 340 341 339 337 336 337 339 339 338 330 332 335 338 337 336 336 334 334 333 331 327 328 328 323 318 314 319 323 324 323 322 321 322 320 319 319 319
314 318 321 324 329 330 333 333 331 331 331 332 325 323 320 319 319 319 320 321 323 329 331 330 330 330 330 325 325 325 325 324 316 313 321 321 321 319 321 321 318 318 317
314 315 316 316 316 316 317 321 324 323 319 317 315 315 316 317 317 318 320 322 323 322 321 322 324 326 327 323 322 323 323 318 316 313 310 313 318 319 318 319 317 315 314
314 314 315 313 312 314 314 315 315 316 314 314 314 313 314 315 316 316 316 318 322 323 324 325 326 325 325 324 322 324 322 316 314 313 311 314 311 314 317 316 313 311 310
Wind_Speed
13 18 16 16 15 12 13 11 11 11 12 11 10 10 10 13 14 14 14 13 12 13 15 18 18 17 17 16 16 15 14 14 12 11 11 11 12 12 12 14 12 12 10
17 19 16 16 15 13 12 13 12 11 11 11 10 9 12 15 14 14 13 12 12 13 15 16 16 16 15 15 15 14 13 12 8 4 4 11 9 10 10 12 13 10 12
17 18 17 15 14 13 14 12 10 12 13 10 9 7 14 14 13 13 13 12 12 12 13 15 14 14 13 13 13 13 12 9 4 5 5 8 10 9 9 10 11 14 18
17 17 16 14 14 14 13 13 13 12 11 10 8 8 14 13 13 13 12 12 12 12 12 13 13 12 12 11 10 10 10 6 6 9 6 12 11 15 13 13 15 15 16
17 16 18 14 15 16 15 15 14 12 10 9 8 7 11 13 14 12 12 12 12 12 12 12 11 11 11 11 10 9 7 4 8 5 10 6 7 11 13 14 13 13 14
16 16 17 13 16 16 16 13 13 11 10 10 7 7 7 14 13 12 11 11 11 11 11 11 10 9 10 10 10 9 6 8 11 7 6 8 9 10 11 12 12 13 13
15 18 16 14 15 14 15 14 11 10 9 9 8 6 8 15 13 12 10 10 10 10 10 9 8 8 9 8 7 7 6 9 6 6 6 5 8 9 10 11 12 12 12
14 16 16 14 14 13 14 12 12 10 8 7 3 9 10 14 14 12 9 8 8 8 8 7 6 6 6 7 7 5 5 8 3 5 4 5 6 6 7 8 9 10 11
14 15 14 14 14 12 12 10 10 9 8 6 9 10 10 13 12 9 7 7 6 7 6 5 5 5 5 6 6 4 4 8 7 4 4 5 5 3 4 5 7 7 9
9 15 13 13 13 13 12 11 10 8 8 8 9 9 11 11 9 9 6 6 5 5 5 4 4 4 4 4 4 3 5 10 4 2 3 5 4 3 1 2 3 5 6
10 7 6 10 14 11 12 9 9 9 7 9 8 5 7 6 7 7 9 7 5 4 3 3 3 3 2 3 1 3 7 3 3 3 2 6 3 4 8 5 1 3 4
14 8 7 6 12 14 10 10 8 8 7 7 8 8 7 3 4 3 8 5 3 3 3 3 3 3 5 3 6 7 5 3 2 2 2 4 3 5 6 7 3 2 2
14 12 8 6 4 13 10 7 4 3 5 4 6 7 4 3 4 4 5 5 6 7 6 7 7 7 3 2 2 4 3 4 3 2 3 3 3 5 8 7 2 2 3
12 11 11 10 5 8 6 7 6 7 5 5 5 6 4 4 3 4 3 4 4 5 5 4 3 3 4 4 5 5 4 3 3 2 0 5 3 6 6 4 4 4 4
9 9 10 11 9 5 7 6 5 8 5 5 5 5 5 4 4 4 4 4 4 4 4 4 4 4 4 5 4 5 4 5 5 3 3 8 6 7 8 8 8 8 7
6 8 8 8 7 6 4 4 4 6 6 5 5 6 7 4 4 4 4 4 4 4 4 4 5 4 4 5 5 6 5 5 5 6 4 3 9 9 10 11 11 11 11
9 9 10 11 11 10 10 8 8 9 6 5 5 7 7 7 6 5 4 4 4 4 6 5 5 5 5 6 7 7 6 7 6 7 6 5 4 10 11 12 13 13 13
10 11 9 8 9 9 8 7 6 6 6 6 6 6 8 8 8 6 5 5 5 4 4 5 5 6 6 6 6 6 3 6 7 9 7 6 4 5 8 12 12 13 13
11 11 11 10 10 10 9 7 7 8 7 6 6 6 7 8 8 7 6 5 6 5 5 6 6 6 6 6 6 6 5 6 8 7 9 8 7 5 4 4 10 9 10
9 11 11 10 11 9 6 6 6 5 6 6 6 6 7 6 7 7 6 7 6 5 6 5 8 6 7 6 7 6 6 6 6 6 8 7 6 5 4 5 3 5 12
9 11 11 11 11 8 6 6 6 7 7 6 6 6 6 6 7 7 5 6 5 7 9 9 7 8 5 5 1 6 7 7 7 7 5 4 3 3 3 4 3 3 3
8 10 12 12 11 10 7 6 5 4 5 6 4 5 6 7 5 3 4 3 4 4 8 7 7 5 1 1 1 1 3 5 5 2 2 3 4 2 2 3 4 4 3
6 7 8 9 10 10 9 4 2 2 2 2 3 3 1 2 4 4 4 3 3 2 4 5 4 4 4 3 6 3 4 4 2 3 3 0 1 2 2 2 2 3 5
6 4 5 5 5 3 4 5 7 5 5 2 2 2 2 2 3 3 4 4 5 4 5 6 5 5 4 6 2 5 7 4 3 3 2 3 4 4 2 3 5 4 6
8 6 7 5 6 6 5 6 5 5 1 3 2 3 3 2 1 2 3 4 4 4 5 6 6 6 6 7 8 3 5 1 2 1 2 3 3 3 4 4 4 5 6
8 7 6 7 6 6 5 4 4 3 3 3 3 2 2 1 1 2 3 4 5 5 5 5 6 6 6 6 5 7 5 3 4 4 4 4 1 3 3 3 5 4 4
Wind_Direction
146 138 146 149 149 145 137 131 119 117 111 104 96 97 108 102 89 80 74 72 73 74 74 81 82 83 81 79 78 76 75 73 72 76 80 63 59 57 46 28 47 63 49
143 144 149 147 152 148 134 128 121 114 111 104 106 113 108 90 87 83 81 83 82 79 79 85 85 84 82 81 81 78 76 71 65 86 104 105 64 53 57 46 39 46 38
141 140 154 149 150 144 128 121 119 106 98 104 112 117 105 100 92 85 85 84 81 83 84 84 86 84 80 80 82 78 72 64 19 319 275 95 70 53 81 62 57 45 42
140 144 147 146 141 128 125 117 111 102 107 111 113 116 116 109 93 86 87 89 87 85 86 87 84 82 76 76 82 83 69 50 329 304 48 25 81 70 81 70 54 41 35
140 153 126 137 129 125 124 125 121 118 118 115 117 124 122 113 99 94 95 94 93 93 93 90 86 80 74 76 79 85 70 13 321 28 76 36 74 71 64 50 46 44 38
143 143 129 130 135 131 132 133 131 125 124 121 117 126 131 113 103 98 98 98 97 97 98 97 91 82 73 74 80 80 47 346 309 56 55 77 63 68 58 55 50 44 38
147 122 138 131 133 136 137 134 130 122 123 131 135 144 137 117 109 99 99 98 97 97 98 98 94 84 73 69 84 73 32 339 26 49 55 52 54 66 63 59 52 46 39
145 133 137 137 135 140 135 134 129 122 122 130 109 175 141 124 107 99 102 99 95 95 97 98 95 84 74 62 67 64 12 335 340 53 52 65 48 82 76 74 65 51 41
145 145 144 148 138 133 134 134 128 127 121 115 82 89 107 101 105 110 113 112 105 99 94 92 94 86 76 66 63 57 353 316 320 29 360 78 58 37 100 97 87 71 50
142 137 152 150 159 157 155 145 137 128 122 110 97 101 111 106 118 119 138 123 112 104 106 102 91 85 74 72 63 21 307 288 323 344 40 66 30 351 159 109 90 75 62
158 135 161 160 163 166 152 147 133 123 120 124 132 128 159 174 173 172 94 117 126 130 126 116 120 113 142 155 146 278 285 280 349 6 14 80 8 324 319 189 121 74 74
142 151 157 202 172 143 148 157 157 149 173 181 179 176 217 170 117 42 110 129 166 167 167 157 169 188 231 208 173 214 244 324 320 322 48 78 344 319 313 211 156 168 120
157 158 186 172 252 135 150 153 153 184 189 198 180 181 201 171 166 208 166 183 197 194 203 189 185 217 234 286 281 270 290 303 297 282 104 133 303 315 328 192 198 160 138
186 174 171 162 189 144 170 169 169 214 183 189 185 191 176 195 195 205 215 198 210 180 232 225 244 235 233 244 261 275 281 278 293 307 92 162 246 285 290 215 201 197 182
186 179 173 186 182 193 169 171 165 253 181 194 181 197 202 190 187 221 211 207 217 221 235 238 240 250 240 252 261 261 275 279 282 276 285 174 207 247 259 261 243 224 223
207 180 176 184 196 175 203 173 174 225 191 201 192 193 214 213 203 208 217 227 231 229 236 236 251 248 259 253 266 276 275 270 268 273 262 241 200 225 243 250 255 259 256
206 189 193 185 191 194 198 202 198 213 213 205 211 197 205 210 217 216 235 224 226 235 243 252 257 257 266 269 265 265 276 284 277 271 254 245 235 209 221 239 248 251 254
200 196 203 185 195 206 197 198 218 216 213 219 214 208 202 214 216 225 227 232 244 236 238 248 250 257 259 266 275 282 265 261 262 269 277 279 254 263 203 220 229 247 255
200 191 193 188 197 199 205 196 208 215 213 214 217 211 209 215 220 225 237 238 239 242 248 252 256 260 266 275 278 276 287 291 293 293 283 280 276 240 268 247 209 225 250
202 192 190 188 198 200 200 211 197 221 225 228 219 224 220 224 227 237 244 249 257 257 256 255 260 264 272 278 285 298 290 280 281 274 272 282 294 319 284 271 248 241 223
207 198 193 192 197 196 206 202 204 210 219 234 233 243 243 244 248 239 254 261 252 258 263 264 270 268 254 260 23 274 252 280 268 252 265 284 319 311 342 317 301 295 291
221 210 194 197 197 194 199 207 217 220 218 212 191 226 243 251 269 323 312 288 292 286 278 281 281 278 312 276 254 6 272 273 237 156 328 317 330 0 334 11 344 341 345
217 219 209 199 201 199 201 198 57 43 34 238 214 211 183 303 292 276 270 265 280 274 256 267 280 251 246 203 186 236 276 243 39 169 188 346 344 302 335 35 348 358 7
202 180 208 186 189 190 207 190 193 208 213 171 22 79 248 243 269 274 274 281 287 268 232 247 255 258 236 232 187 219 255 287 266 278 201 208 217 315 336 10 30 16 30
141 188 153 171 169 164 186 208 216 227 48 81 154 200 219 218 227 282 295 301 280 266 277 285 273 241 234 251 246 226 225 69 44 202 247 273 353 311 332 40 23 29 40
162 164 154 160 154 149 142 164 191 173 165 171 173 231 238 268 270 265 292 291 290 284 289 309 309 295 291 261 250 250 203 178 190 185 215 254 248 286 317 70 57 39 34